• In Hungary
  • List of Countries
  • For 7 days
  • Water Temperature
  • Satellite Maps
  • Weather Map
  • News
  • Weather Widgets
  • user-avatar
    Login

    Hourly Weather Puerto Viejo

    Today, 26 May, Saturday

    Time Temperature Precipitation Wind Pressure Humidity
    00:00 +25°C° 0.4 mm 0 mps 747 mmHg 90%
    01:00 +25°C° 0.3 mm 0 mps 747 mmHg 90%
    02:00 +25°C° 0.3 mm 0 mps 746 mmHg 90%
    03:00 +25°C° 0.3 mm 0 mps 746 mmHg 90%
    04:00 +25°C° 0 mm 0 mps 746 mmHg 89%
    05:00 +25°C° 0 mm 0 mps 746 mmHg 88%
    06:00 +25°C° 0 mm 0 mps 747 mmHg 88%
    07:00 +27°C° 0 mm 0 mps 747 mmHg 78%
    08:00 +29°C° 0 mm 0 mps 747 mmHg 69%
    09:00 +34°C° 0 mm 1 mps 748 mmHg 60%
    10:00 +34°C° 0.3 mm 1 mps 747 mmHg 58%
    11:00 +35°C° 0.3 mm 1 mps 747 mmHg 56%
    12:00 +36°C° 0.3 mm 1 mps 747 mmHg 54%
    13:00 +34°C° 1.9 mm 1 mps 746 mmHg 63%
    14:00 +33°C° 1.9 mm 1 mps 746 mmHg 71%
    15:00 +31°C° 1.9 mm 1 mps 745 mmHg 79%
    16:00 +30°C° 4.9 mm 1 mps 745 mmHg 84%
    17:00 +29°C° 4.9 mm 1 mps 746 mmHg 88%
    18:00 +27°C° 4.9 mm 1 mps 746 mmHg 93%
    19:00 +27°C° 2.1 mm 1 mps 747 mmHg 93%
    20:00 +27°C° 2.1 mm 1 mps 747 mmHg 93%
    21:00 +25°C° 2.1 mm 0 mps 748 mmHg 94%
    22:00 +25°C° 0.7 mm 0 mps 748 mmHg 94%
    23:00 +26°C° 0.7 mm 1 mps 747 mmHg 94%

    Tomorrow, 27 May, Sunday

    Time Temperature Precipitation Wind Pressure Humidity
    00:00 +26°C° 0.7 mm 1 mps 747 mmHg 93%
    01:00 +24°C° 0.2 mm 0 mps 747 mmHg 93%
    02:00 +24°C° 0.2 mm 0 mps 746 mmHg 93%
    03:00 +24°C° 0.2 mm 0 mps 746 mmHg 93%
    04:00 +24°C° 0.1 mm 0 mps 746 mmHg 92%
    05:00 +24°C° 0.1 mm 0 mps 747 mmHg 92%
    06:00 +24°C° 0.1 mm 0 mps 747 mmHg 91%
    07:00 +26°C° 0 mm 0 mps 747 mmHg 82%
    08:00 +28°C° 0 mm 0 mps 748 mmHg 73%
    09:00 +30°C° 0 mm 0 mps 748 mmHg 64%
    10:00 +32°C° 0.1 mm 0 mps 748 mmHg 60%
    11:00 +35°C° 0.1 mm 1 mps 747 mmHg 56%
    12:00 +36°C° 0.1 mm 1 mps 747 mmHg 51%
    13:00 +35°C° 0.3 mm 1 mps 746 mmHg 55%
    14:00 +34°C° 0.3 mm 1 mps 746 mmHg 58%
    15:00 +34°C° 0.3 mm 2 mps 745 mmHg 61%
    16:00 +32°C° 1.3 mm 1 mps 745 mmHg 69%
    17:00 +30°C° 1.3 mm 1 mps 746 mmHg 77%
    18:00 +28°C° 1.3 mm 1 mps 746 mmHg 85%
    19:00 +28°C° 2.1 mm 1 mps 747 mmHg 87%
    20:00 +27°C° 2.1 mm 1 mps 748 mmHg 90%
    21:00 +25°C° 2.1 mm 0 mps 749 mmHg 92%
    22:00 +27°C° 2.7 mm 1 mps 748 mmHg 93%
    23:00 +27°C° 2.7 mm 1 mps 748 mmHg 93%

    Day after tomorrow, 28 May, Monday

    Time Temperature Precipitation Wind Pressure Humidity
    00:00 +26°C° 2.7 mm 1 mps 748 mmHg 94%
    01:00 +26°C° 1.1 mm 1 mps 748 mmHg 94%
    02:00 +26°C° 1.1 mm 1 mps 747 mmHg 94%
    03:00 +26°C° 1.1 mm 1 mps 747 mmHg 94%
    04:00 +26°C° 0.8 mm 1 mps 747 mmHg 94%
    05:00 +26°C° 0.8 mm 1 mps 747 mmHg 93%
    06:00 +25°C° 0.8 mm 1 mps 747 mmHg 93%
    07:00 +26°C° 3 mm 1 mps 747 mmHg 93%
    08:00 +26°C° 3 mm 1 mps 748 mmHg 94%
    09:00 +26°C° 3 mm 1 mps 748 mmHg 94%
    10:00 +26°C° 1.7 mm 1 mps 748 mmHg 94%
    11:00 +26°C° 1.7 mm 1 mps 748 mmHg 94%
    12:00 +24°C° 1.7 mm 0 mps 748 mmHg 94%
    13:00 +24°C° 0.4 mm 0 mps 748 mmHg 93%
    14:00 +27°C° 0.4 mm 1 mps 747 mmHg 92%
    15:00 +27°C° 0.4 mm 1 mps 746 mmHg 91%
    16:00 +27°C° 0.1 mm 1 mps 747 mmHg 92%
    17:00 +24°C° 0.1 mm 0 mps 747 mmHg 94%
    18:00 +24°C° 0.1 mm 0 mps 747 mmHg 95%
    19:00 +24°C° 0.1 mm 0 mps 748 mmHg 95%
    20:00 +24°C° 0.1 mm 0 mps 748 mmHg 94%
    21:00 +23°C° 0.1 mm 0 mps 749 mmHg 94%
    22:00 +23°C° 0.1 mm 0 mps 749 mmHg 94%
    23:00 +23°C° 0.1 mm 0 mps 748 mmHg 94%

    29 May, Tuesday

    Time Temperature Precipitation Wind Pressure Humidity
    00:00 +23°C° 0.1 mm 0 mps 748 mmHg 94%
    01:00 +23°C° 0.2 mm 0 mps 748 mmHg 94%
    02:00 +23°C° 0.2 mm 0 mps 747 mmHg 94%
    03:00 +23°C° 0.2 mm 0 mps 747 mmHg 94%
    04:00 +23°C° 0 mm 0 mps 747 mmHg 93%
    05:00 +23°C° 0 mm 0 mps 747 mmHg 93%
    06:00 +23°C° 0 mm 0 mps 748 mmHg 92%
    07:00 +25°C° 0 mm 0 mps 748 mmHg 84%
    08:00 +27°C° 0 mm 0 mps 749 mmHg 76%
    09:00 +31°C° 0 mm 1 mps 749 mmHg 68%
    10:00 +32°C° 0.1 mm 1 mps 748 mmHg 65%
    11:00 +33°C° 0.1 mm 1 mps 748 mmHg 62%
    12:00 +34°C° 0.1 mm 1 mps 747 mmHg 59%
    13:00 +33°C° 0.8 mm 1 mps 747 mmHg 65%
    14:00 +32°C° 0.8 mm 1 mps 746 mmHg 71%
    15:00 +31°C° 0.8 mm 1 mps 746 mmHg 78%
    16:00 +30°C° 2.3 mm 1 mps 746 mmHg 83%
    17:00 +29°C° 2.3 mm 1 mps 746 mmHg 88%
    18:00 +28°C° 2.3 mm 1 mps 747 mmHg 93%
    19:00 +27°C° 2.1 mm 1 mps 747 mmHg 93%
    20:00 +27°C° 2.1 mm 1 mps 748 mmHg 93%
    21:00 +27°C° 2.1 mm 1 mps 748 mmHg 93%
    22:00 +27°C° 1.1 mm 1 mps 748 mmHg 93%
    23:00 +24°C° 1.1 mm 0 mps 748 mmHg 93%

    30 May, Wednesday

    Time Temperature Precipitation Wind Pressure Humidity
    00:00 +24°C° 1.1 mm 0 mps 748 mmHg 93%
    01:00 +24°C° 0.4 mm 0 mps 747 mmHg 93%
    02:00 +24°C° 0.4 mm 0 mps 747 mmHg 93%
    03:00 +24°C° 0.4 mm 0 mps 747 mmHg 93%
    04:00 +24°C° 0.3 mm 0 mps 747 mmHg 93%
    05:00 +24°C° 0.3 mm 0 mps 747 mmHg 92%
    06:00 +24°C° 0.3 mm 0 mps 748 mmHg 91%
    07:00 +26°C° 0.1 mm 0 mps 748 mmHg 85%
    08:00 +27°C° 0.1 mm 0 mps 748 mmHg 78%
    09:00 +29°C° 0.1 mm 0 mps 748 mmHg 71%
    10:00 +30°C° 0.4 mm 0 mps 748 mmHg 68%
    11:00 +33°C° 0.4 mm 1 mps 748 mmHg 65%
    12:00 +34°C° 0.4 mm 1 mps 747 mmHg 61%
    13:00 +33°C° 0.5 mm 1 mps 747 mmHg 65%
    14:00 +32°C° 0.5 mm 1 mps 746 mmHg 69%
    15:00 +31°C° 0.5 mm 1 mps 746 mmHg 72%
    16:00 +30°C° 1.5 mm 1 mps 746 mmHg 79%
    17:00 +29°C° 1.5 mm 1 mps 746 mmHg 85%
    18:00 +25°C° 1.5 mm 0 mps 747 mmHg 92%
    19:00 +25°C° 1.2 mm 0 mps 747 mmHg 92%
    20:00 +25°C° 1.2 mm 0 mps 748 mmHg 92%
    21:00 +25°C° 1.2 mm 0 mps 748 mmHg 92%
    22:00 +24°C° 0.2 mm 0 mps 748 mmHg 92%
    23:00 +24°C° 0.2 mm 0 mps 747 mmHg 92%

    31 May, Thursday

    Time Temperature Precipitation Wind Pressure Humidity
    00:00 +24°C° 0.2 mm 0 mps 747 mmHg 92%
    01:00 +24°C° 0 mm 0 mps 747 mmHg 92%
    02:00 +24°C° 0 mm 0 mps 747 mmHg 93%
    03:00 +24°C° 0 mm 0 mps 746 mmHg 93%
    04:00 +24°C° 0.1 mm 0 mps 747 mmHg 92%
    05:00 +24°C° 0.1 mm 0 mps 747 mmHg 92%
    06:00 +24°C° 0.1 mm 0 mps 747 mmHg 91%
    07:00 +25°C° 0.1 mm 0 mps 748 mmHg 84%
    08:00 +27°C° 0.1 mm 0 mps 748 mmHg 77%
    09:00 +29°C° 0.1 mm 0 mps 748 mmHg 71%
    10:00 +31°C° 0.2 mm 1 mps 748 mmHg 67%
    11:00 +32°C° 0.2 mm 1 mps 747 mmHg 63%
    12:00 +33°C° 0.2 mm 1 mps 747 mmHg 60%
    13:00 +33°C° 0.6 mm 1 mps 746 mmHg 63%
    14:00 +32°C° 0.6 mm 1 mps 746 mmHg 66%
    15:00 +32°C° 0.6 mm 2 mps 745 mmHg 70%
    16:00 +30°C° 0.7 mm 1 mps 746 mmHg 76%
    17:00 +29°C° 0.7 mm 1 mps 746 mmHg 83%
    18:00 +28°C° 0.7 mm 1 mps 746 mmHg 90%
    19:00 +27°C° 0.2 mm 1 mps 747 mmHg 91%
    20:00 +25°C° 0.2 mm 0 mps 747 mmHg 92%
    21:00 +24°C° 0.2 mm 0 mps 747 mmHg 92%
    22:00 +24°C° 0.2 mm 0 mps 747 mmHg 92%
    23:00 +24°C° 0.2 mm 0 mps 747 mmHg 92%
    Show more